Time,TemperatureF,DewpointF,PressureIn,WindDirection,WindDirectionDegrees,WindSpeedMPH,WindSpeedGustMPH,Humidity,HourlyPrecipIn,Conditions,Clouds,dailyrainin,SoftwareType,DateUTC
2013-02-01 00:00:00,9.6,2.1,30.52,WNW,292,2.0,6.0,71,0.00,,,0.00,VWS V14.00,2013-02-01 06:00:00,
2013-02-01 00:05:00,9.6,2.1,30.52,West,270,2.0,2.0,71,0.00,,,0.00,VWS V14.00,2013-02-01 06:05:00,
2013-02-01 00:10:00,9.3,2.4,30.53,WNW,292,2.0,5.0,73,0.00,,,0.00,VWS V14.00,2013-02-01 06:10:00,
2013-02-01 00:15:00,9.2,2.3,30.53,West,270,2.0,4.0,73,0.00,,,0.00,VWS V14.00,2013-02-01 06:15:00,
2013-02-01 00:20:00,9.1,2.2,30.53,West,270,3.0,5.0,73,0.00,,,0.00,VWS V14.00,2013-02-01 06:20:00,
2013-02-01 00:25:00,9.0,2.1,30.53,West,270,3.0,5.0,73,0.00,,,0.00,VWS V14.00,2013-02-01 06:25:00,
2013-02-01 00:30:00,8.9,2.3,30.53,West,270,2.0,4.0,74,0.00,,,0.00,VWS V14.00,2013-02-01 06:30:00,
2013-02-01 00:35:00,8.7,2.4,30.53,West,270,1.0,3.0,75,0.00,,,0.00,VWS V14.00,2013-02-01 06:35:00,
2013-02-01 00:40:00,8.5,2.2,30.53,West,270,3.0,5.0,75,0.00,,,0.00,VWS V14.00,2013-02-01 06:40:00,
2013-02-01 00:45:00,8.5,2.2,30.53,West,270,2.0,5.0,75,0.00,,,0.00,VWS V14.00,2013-02-01 06:45:00,
2013-02-01 00:50:00,8.4,2.1,30.54,West,270,3.0,5.0,75,0.00,,,0.00,VWS V14.00,2013-02-01 06:50:00,
2013-02-01 00:55:00,8.5,2.2,30.53,West,270,3.0,5.0,75,0.00,,,0.00,VWS V14.00,2013-02-01 06:55:00,
2013-02-01 01:00:00,8.5,2.5,30.53,West,270,3.0,5.0,76,0.00,,,0.00,VWS V14.00,2013-02-01 07:00:00,
2013-02-01 01:05:00,8.4,3.0,30.53,WSW,248,3.0,5.0,78,0.00,,,0.00,VWS V14.00,2013-02-01 07:05:00,
2013-02-01 01:10:00,8.2,2.8,30.53,WSW,248,3.0,4.0,78,0.00,,,0.00,VWS V14.00,2013-02-01 07:10:00,
2013-02-01 01:15:00,8.1,2.7,30.53,WSW,248,2.0,4.0,78,0.00,,,0.00,VWS V14.00,2013-02-01 07:15:00,
2013-02-01 01:20:00,8.0,2.3,30.53,WSW,248,2.0,4.0,77,0.00,,,0.00,VWS V14.00,2013-02-01 07:20:00,
2013-02-01 01:25:00,7.9,2.2,30.53,West,270,3.0,5.0,77,0.00,,,0.00,VWS V14.00,2013-02-01 07:25:00,
2013-02-01 01:30:00,7.8,2.4,30.53,West,270,3.0,5.0,78,0.00,,,0.00,VWS V14.00,2013-02-01 07:30:00,
2013-02-01 01:35:00,7.8,2.4,30.52,West,270,3.0,4.0,78,0.00,,,0.00,VWS V14.00,2013-02-01 07:35:00,
2013-02-01 01:40:00,7.8,2.4,30.53,West,270,2.0,4.0,78,0.00,,,0.00,VWS V14.00,2013-02-01 07:40:00,
2013-02-01 01:45:00,7.8,2.4,30.53,West,270,3.0,5.0,78,0.00,,,0.00,VWS V14.00,2013-02-01 07:45:00,
2013-02-01 01:50:00,7.9,2.5,30.53,West,270,2.0,4.0,78,0.00,,,0.00,VWS V14.00,2013-02-01 07:50:00,
2013-02-01 01:55:00,7.9,2.5,30.53,West,270,3.0,5.0,78,0.00,,,0.00,VWS V14.00,2013-02-01 07:55:00,
2013-02-01 02:00:00,7.9,2.5,30.53,West,270,2.0,3.0,78,0.00,,,0.00,VWS V14.00,2013-02-01 08:00:00,
2013-02-01 02:05:00,7.9,2.8,30.53,West,270,2.0,3.0,79,0.00,,,0.00,VWS V14.00,2013-02-01 08:05:00,
2013-02-01 02:10:00,7.8,2.7,30.53,West,270,3.0,4.0,79,0.00,,,0.00,VWS V14.00,2013-02-01 08:10:00,
2013-02-01 02:15:00,7.6,2.5,30.53,West,270,3.0,5.0,79,0.00,,,0.00,VWS V14.00,2013-02-01 08:15:00,
2013-02-01 02:20:00,7.6,2.5,30.53,West,270,3.0,4.0,79,0.00,,,0.00,VWS V14.00,2013-02-01 08:20:00,
2013-02-01 02:25:00,7.5,2.6,30.53,West,270,2.0,4.0,80,0.00,,,0.00,VWS V14.00,2013-02-01 08:25:00,
2013-02-01 02:30:00,7.4,2.5,30.53,West,270,3.0,4.0,80,0.00,,,0.00,VWS V14.00,2013-02-01 08:30:00,
2013-02-01 02:35:00,7.2,2.3,30.52,West,270,3.0,4.0,80,0.00,,,0.00,VWS V14.00,2013-02-01 08:35:00,
2013-02-01 02:40:00,7.0,2.4,30.52,West,270,1.0,3.0,81,0.00,,,0.00,VWS V14.00,2013-02-01 08:40:00,
2013-02-01 02:45:00,6.8,2.2,30.52,West,270,1.0,2.0,81,0.00,,,0.00,VWS V14.00,2013-02-01 08:45:00,
2013-02-01 02:50:00,6.8,2.2,30.52,West,270,1.0,2.0,81,0.00,,,0.00,VWS V14.00,2013-02-01 08:50:00,
2013-02-01 02:55:00,6.8,2.2,30.52,West,270,1.0,2.0,81,0.00,,,0.00,VWS V14.00,2013-02-01 08:55:00,
2013-02-01 03:00:00,6.8,2.2,30.52,West,270,0.0,1.0,81,0.00,,,0.00,VWS V14.00,2013-02-01 09:00:00,
2013-02-01 03:05:00,6.8,2.5,30.52,West,270,1.0,2.0,82,0.00,,,0.00,VWS V14.00,2013-02-01 09:05:00,
2013-02-01 03:10:00,6.9,2.3,30.52,West,270,1.0,2.0,81,0.00,,,0.00,VWS V14.00,2013-02-01 09:10:00,
2013-02-01 03:15:00,6.9,2.3,30.51,West,270,0.0,1.0,81,0.00,,,0.00,VWS V14.00,2013-02-01 09:15:00,
2013-02-01 03:20:00,6.8,2.2,30.52,West,270,1.0,2.0,81,0.00,,,0.00,VWS V14.00,2013-02-01 09:20:00,
2013-02-01 03:25:00,6.8,2.2,30.51,West,270,0.0,1.0,81,0.00,,,0.00,VWS V14.00,2013-02-01 09:25:00,
2013-02-01 03:30:00,6.8,2.2,30.52,West,270,1.0,1.0,81,0.00,,,0.00,VWS V14.00,2013-02-01 09:30:00,
2013-02-01 03:35:00,6.7,2.1,30.51,West,270,1.0,2.0,81,0.00,,,0.00,VWS V14.00,2013-02-01 09:35:00,
2013-02-01 03:40:00,6.7,2.1,30.51,West,270,1.0,2.0,81,0.00,,,0.00,VWS V14.00,2013-02-01 09:40:00,
2013-02-01 03:45:00,6.7,2.1,30.51,West,270,1.0,2.0,81,0.00,,,0.00,VWS V14.00,2013-02-01 09:45:00,
2013-02-01 03:50:00,6.8,2.2,30.51,West,270,1.0,2.0,81,0.00,,,0.00,VWS V14.00,2013-02-01 09:50:00,
2013-02-01 03:55:00,6.8,2.2,30.52,West,270,1.0,2.0,81,0.00,,,0.00,VWS V14.00,2013-02-01 09:55:00,
2013-02-01 04:00:00,6.7,1.9,30.51,West,270,1.0,2.0,80,0.00,,,0.00,VWS V14.00,2013-02-01 10:00:00,
2013-02-01 04:05:00,6.6,1.8,30.51,West,270,0.0,1.0,80,0.00,,,0.00,VWS V14.00,2013-02-01 10:05:00,
2013-02-01 04:10:00,6.5,1.9,30.50,West,270,0.0,0.0,81,0.00,,,0.00,VWS V14.00,2013-02-01 10:10:00,
2013-02-01 04:15:00,6.2,1.6,30.51,West,270,0.0,2.0,81,0.00,,,0.00,VWS V14.00,2013-02-01 10:15:00,
2013-02-01 04:20:00,6.2,1.9,30.51,West,270,2.0,3.0,82,0.00,,,0.00,VWS V14.00,2013-02-01 10:20:00,
2013-02-01 04:25:00,6.2,1.6,30.51,West,270,1.0,4.0,81,0.00,,,0.00,VWS V14.00,2013-02-01 10:25:00,
2013-02-01 04:30:00,6.3,2.2,30.51,West,270,2.0,4.0,83,0.00,,,0.00,VWS V14.00,2013-02-01 10:30:00,
2013-02-01 04:35:00,6.3,2.0,30.51,West,270,1.0,2.0,82,0.00,,,0.00,VWS V14.00,2013-02-01 10:35:00,
2013-02-01 04:40:00,6.4,2.3,30.51,West,270,1.0,2.0,83,0.00,,,0.00,VWS V14.00,2013-02-01 10:40:00,
2013-02-01 04:45:00,6.4,2.3,30.51,West,270,0.0,0.0,83,0.00,,,0.00,VWS V14.00,2013-02-01 10:45:00,
2013-02-01 04:50:00,6.5,2.5,30.51,West,270,0.0,2.0,83,0.00,,,0.00,VWS V14.00,2013-02-01 10:50:00,
2013-02-01 04:55:00,6.5,2.5,30.50,West,270,1.0,2.0,83,0.00,,,0.00,VWS V14.00,2013-02-01 10:55:00,
2013-02-01 05:00:00,6.5,2.5,30.50,West,270,1.0,2.0,83,0.00,,,0.00,VWS V14.00,2013-02-01 11:00:00,
2013-02-01 05:05:00,6.5,2.5,30.50,West,270,0.0,1.0,83,0.00,,,0.00,VWS V14.00,2013-02-01 11:05:00,
2013-02-01 05:10:00,6.5,2.5,30.50,West,270,0.0,1.0,83,0.00,,,0.00,VWS V14.00,2013-02-01 11:10:00,
2013-02-01 05:15:00,6.5,2.5,30.50,West,270,0.0,1.0,83,0.00,,,0.00,VWS V14.00,2013-02-01 11:15:00,
2013-02-01 05:20:00,6.5,2.5,30.49,West,270,0.0,2.0,83,0.00,,,0.00,VWS V14.00,2013-02-01 11:20:00,
2013-02-01 05:25:00,6.4,2.6,30.49,West,270,0.0,1.0,84,0.00,,,0.00,VWS V14.00,2013-02-01 11:25:00,
2013-02-01 05:30:00,6.4,2.6,30.48,WNW,292,2.0,4.0,84,0.00,,,0.00,VWS V14.00,2013-02-01 11:30:00,
2013-02-01 05:35:00,6.3,2.5,30.48,NNE,22,3.0,5.0,84,0.00,,,0.00,VWS V14.00,2013-02-01 11:35:00,
2013-02-01 05:40:00,6.3,2.5,30.49,NE,45,2.0,4.0,84,0.00,,,0.00,VWS V14.00,2013-02-01 11:40:00,
2013-02-01 05:45:00,6.2,2.2,30.49,NE,45,2.0,3.0,83,0.00,,,0.00,VWS V14.00,2013-02-01 11:45:00,
2013-02-01 05:50:00,6.1,2.1,30.49,NE,45,2.0,3.0,83,0.00,,,0.00,VWS V14.00,2013-02-01 11:50:00,
2013-02-01 05:55:00,6.3,2.5,30.50,ENE,68,2.0,3.0,84,0.00,,,0.00,VWS V14.00,2013-02-01 11:55:00,
2013-02-01 06:00:00,6.4,2.6,30.49,ENE,68,2.0,3.0,84,0.00,,,0.00,VWS V14.00,2013-02-01 12:00:00,
2013-02-01 06:05:00,6.5,2.7,30.49,ENE,68,2.0,3.0,84,0.00,,,0.00,VWS V14.00,2013-02-01 12:05:00,
2013-02-01 06:10:00,6.4,2.3,30.48,ENE,68,3.0,5.0,83,0.00,,,0.00,VWS V14.00,2013-02-01 12:10:00,
2013-02-01 06:15:00,6.3,2.2,30.49,ENE,68,2.0,5.0,83,0.00,,,0.00,VWS V14.00,2013-02-01 12:15:00,
2013-02-01 06:20:00,6.2,2.2,30.50,ENE,68,1.0,3.0,83,0.00,,,0.00,VWS V14.00,2013-02-01 12:20:00,
2013-02-01 06:25:00,6.2,2.2,30.50,ENE,68,2.0,3.0,83,0.00,,,0.00,VWS V14.00,2013-02-01 12:25:00,
2013-02-01 06:30:00,6.1,2.1,30.50,ESE,112,1.0,3.0,83,0.00,,,0.00,VWS V14.00,2013-02-01 12:30:00,
2013-02-01 06:35:00,6.0,2.2,30.50,ESE,112,0.0,0.0,84,0.00,,,0.00,VWS V14.00,2013-02-01 12:35:00,
2013-02-01 06:40:00,6.0,2.2,30.50,ESE,112,0.0,0.0,84,0.00,,,0.00,VWS V14.00,2013-02-01 12:40:00,
2013-02-01 06:45:00,5.9,2.1,30.50,ESE,112,0.0,0.0,84,0.00,,,0.00,VWS V14.00,2013-02-01 12:45:00,
2013-02-01 06:50:00,5.9,2.1,30.50,ESE,112,0.0,0.0,84,0.00,,,0.00,VWS V14.00,2013-02-01 12:50:00,
2013-02-01 06:55:00,5.9,2.1,30.51,ESE,112,0.0,2.0,84,0.00,,,0.00,VWS V14.00,2013-02-01 12:55:00,
2013-02-01 07:00:00,5.9,2.1,30.50,ESE,112,1.0,3.0,84,0.00,,,0.00,VWS V14.00,2013-02-01 13:00:00,
2013-02-01 07:05:00,5.9,2.4,30.51,ENE,68,2.0,3.0,85,0.00,,,0.00,VWS V14.00,2013-02-01 13:05:00,
2013-02-01 07:10:00,6.0,2.5,30.51,ENE,68,1.0,2.0,85,0.00,,,0.00,VWS V14.00,2013-02-01 13:10:00,
2013-02-01 07:15:00,6.0,2.5,30.52,ENE,68,2.0,3.0,85,0.00,,,0.00,VWS V14.00,2013-02-01 13:15:00,
2013-02-01 07:20:00,6.1,2.6,30.53,ENE,68,3.0,5.0,85,0.00,,,0.00,VWS V14.00,2013-02-01 13:20:00,
2013-02-01 07:25:00,6.2,2.7,30.53,SW,225,3.0,4.0,85,0.00,,,0.00,VWS V14.00,2013-02-01 13:25:00,
2013-02-01 07:30:00,6.4,2.9,30.53,SW,225,2.0,4.0,85,0.00,,,0.00,VWS V14.00,2013-02-01 13:30:00,
2013-02-01 07:35:00,6.5,3.0,30.53,SW,225,2.0,3.0,85,0.00,,,0.00,VWS V14.00,2013-02-01 13:35:00,
2013-02-01 07:40:00,6.6,3.1,30.53,SW,225,2.0,4.0,85,0.00,,,0.00,VWS V14.00,2013-02-01 13:40:00,
2013-02-01 07:45:00,6.9,3.3,30.53,SW,225,2.0,4.0,85,0.00,,,0.00,VWS V14.00,2013-02-01 13:45:00,
2013-02-01 07:50:00,7.3,3.5,30.54,SSW,202,3.0,5.0,84,0.00,,,0.00,VWS V14.00,2013-02-01 13:50:00,
2013-02-01 07:55:00,7.8,3.7,30.54,SSW,202,2.0,5.0,83,0.00,,,0.00,VWS V14.00,2013-02-01 13:55:00,
2013-02-01 08:00:00,8.2,4.1,30.54,SSW,202,1.0,4.0,83,0.00,,,0.00,VWS V14.00,2013-02-01 14:00:00,
2013-02-01 08:05:00,8.6,4.0,30.55,SW,225,2.0,5.0,81,0.00,,,0.00,VWS V14.00,2013-02-01 14:05:00,
2013-02-01 08:10:00,8.9,4.3,30.55,SW,225,3.0,5.0,81,0.00,,,0.00,VWS V14.00,2013-02-01 14:10:00,
2013-02-01 08:15:00,9.1,4.5,30.55,SW,225,2.0,3.0,81,0.00,,,0.00,VWS V14.00,2013-02-01 14:15:00,
2013-02-01 08:20:00,9.2,4.6,30.55,SW,225,2.0,5.0,81,0.00,,,0.00,VWS V14.00,2013-02-01 14:20:00,
2013-02-01 08:25:00,9.6,4.4,30.55,SW,225,1.0,4.0,79,0.00,,,0.00,VWS V14.00,2013-02-01 14:25:00,
2013-02-01 08:30:00,10.0,4.2,30.56,SW,225,3.0,6.0,77,0.00,,,0.00,VWS V14.00,2013-02-01 14:30:00,
2013-02-01 08:35:00,10.5,4.4,30.56,SW,225,4.0,6.0,76,0.00,,,0.00,VWS V14.00,2013-02-01 14:35:00,
2013-02-01 08:40:00,10.9,4.8,30.56,SW,225,4.0,9.0,76,0.00,,,0.00,VWS V14.00,2013-02-01 14:40:00,
2013-02-01 08:45:00,11.3,4.9,30.56,SSW,202,4.0,6.0,75,0.00,,,0.00,VWS V14.00,2013-02-01 14:45:00,
2013-02-01 08:50:00,11.7,4.7,30.56,SW,225,5.0,8.0,73,0.00,,,0.00,VWS V14.00,2013-02-01 14:50:00,
2013-02-01 08:55:00,11.9,4.6,30.56,SW,225,3.0,6.0,72,0.00,,,0.00,VWS V14.00,2013-02-01 14:55:00,
2013-02-01 09:00:00,12.2,4.6,30.56,SW,225,3.0,7.0,71,0.00,,,0.00,VWS V14.00,2013-02-01 15:00:00,
2013-02-01 09:05:00,12.5,4.6,30.56,SW,225,4.0,7.0,70,0.00,,,0.00,VWS V14.00,2013-02-01 15:05:00,
2013-02-01 09:10:00,12.9,5.0,30.55,SW,225,1.0,4.0,70,0.00,,,0.00,VWS V14.00,2013-02-01 15:10:00,
2013-02-01 09:15:00,13.2,4.0,30.56,SW,225,3.0,6.0,66,0.00,,,0.00,VWS V14.00,2013-02-01 15:15:00,
2013-02-01 09:20:00,13.5,4.9,30.56,SSW,202,4.0,7.0,68,0.00,,,0.00,VWS V14.00,2013-02-01 15:20:00,
2013-02-01 09:25:00,13.7,4.1,30.56,SW,225,3.0,5.0,65,0.00,,,0.00,VWS V14.00,2013-02-01 15:25:00,
2013-02-01 09:30:00,14.3,5.4,30.56,WSW,248,3.0,5.0,67,0.00,,,0.00,VWS V14.00,2013-02-01 15:30:00,
2013-02-01 09:35:00,14.7,6.1,30.56,SSW,202,4.0,6.0,68,0.00,,,0.00,VWS V14.00,2013-02-01 15:35:00,
2013-02-01 09:40:00,15.1,5.8,30.55,SW,225,4.0,9.0,66,0.00,,,0.00,VWS V14.00,2013-02-01 15:40:00,
2013-02-01 09:45:00,15.3,6.0,30.55,SSW,202,5.0,9.0,66,0.00,,,0.00,VWS V14.00,2013-02-01 15:45:00,
2013-02-01 09:50:00,15.5,6.5,30.55,South,180,4.0,10.0,67,0.00,,,0.00,VWS V14.00,2013-02-01 15:50:00,
2013-02-01 09:55:00,15.7,7.3,30.55,SSW,202,5.0,8.0,69,0.00,,,0.00,VWS V14.00,2013-02-01 15:55:00,
2013-02-01 10:00:00,16.1,7.1,30.54,SW,225,2.0,5.0,67,0.00,,,0.00,VWS V14.00,2013-02-01 16:00:00,
2013-02-01 10:05:00,16.5,7.8,30.54,SSE,158,5.0,8.0,68,0.00,,,0.00,VWS V14.00,2013-02-01 16:05:00,
2013-02-01 10:10:00,16.5,7.1,30.54,South,180,5.0,7.0,66,0.00,,,0.00,VWS V14.00,2013-02-01 16:10:00,
2013-02-01 10:15:00,16.6,6.6,30.54,SSW,202,4.0,7.0,64,0.00,,,0.00,VWS V14.00,2013-02-01 16:15:00,
2013-02-01 10:20:00,16.8,6.8,30.53,South,180,5.0,7.0,64,0.00,,,0.00,VWS V14.00,2013-02-01 16:20:00,
2013-02-01 10:25:00,17.1,7.0,30.53,South,180,4.0,7.0,64,0.00,,,0.00,VWS V14.00,2013-02-01 16:25:00,
2013-02-01 10:30:00,17.3,6.9,30.53,South,180,3.0,6.0,63,0.00,,,0.00,VWS V14.00,2013-02-01 16:30:00,
2013-02-01 10:35:00,17.6,7.5,30.53,SSE,158,3.0,8.0,64,0.00,,,0.00,VWS V14.00,2013-02-01 16:35:00,
2013-02-01 10:40:00,17.9,7.1,30.52,SSE,158,2.0,5.0,62,0.00,,,0.00,VWS V14.00,2013-02-01 16:40:00,
2013-02-01 10:45:00,18.2,7.7,30.52,SSE,158,4.0,7.0,63,0.00,,,0.00,VWS V14.00,2013-02-01 16:45:00,
2013-02-01 10:50:00,18.7,8.6,30.52,SSE,158,4.0,7.0,64,0.00,,,0.00,VWS V14.00,2013-02-01 16:50:00,
2013-02-01 10:55:00,18.9,7.3,30.51,SSE,158,3.0,6.0,60,0.00,,,0.00,VWS V14.00,2013-02-01 16:55:00,
2013-02-01 11:00:00,19.2,7.6,30.51,SSE,158,3.0,6.0,60,0.00,,,0.00,VWS V14.00,2013-02-01 17:00:00,
2013-02-01 11:05:00,19.8,7.8,30.51,SSE,158,3.0,6.0,59,0.00,,,0.00,VWS V14.00,2013-02-01 17:05:00,
2013-02-01 11:10:00,19.9,6.8,30.51,South,180,5.0,8.0,56,0.00,,,0.00,VWS V14.00,2013-02-01 17:10:00,
2013-02-01 11:15:00,20.1,8.1,30.51,SSE,158,4.0,9.0,59,0.00,,,0.00,VWS V14.00,2013-02-01 17:15:00,
2013-02-01 11:20:00,20.6,8.6,30.50,SSE,158,4.0,9.0,59,0.00,,,0.00,VWS V14.00,2013-02-01 17:20:00,
2013-02-01 11:25:00,21.0,8.6,30.50,South,180,6.0,11.0,58,0.00,,,0.00,VWS V14.00,2013-02-01 17:25:00,
2013-02-01 11:30:00,21.6,8.7,30.50,South,180,5.0,10.0,57,0.00,,,0.00,VWS V14.00,2013-02-01 17:30:00,
2013-02-01 11:35:00,21.6,8.3,30.49,SSE,158,7.0,10.0,56,0.00,,,0.00,VWS V14.00,2013-02-01 17:35:00,
2013-02-01 11:40:00,21.7,8.4,30.49,SSE,158,4.0,7.0,56,0.00,,,0.00,VWS V14.00,2013-02-01 17:40:00,
2013-02-01 11:45:00,22.1,9.6,30.49,SSE,158,5.0,10.0,58,0.00,,,0.00,VWS V14.00,2013-02-01 17:45:00,
2013-02-01 11:50:00,22.6,9.3,30.48,SSE,158,4.0,9.0,56,0.00,,,0.00,VWS V14.00,2013-02-01 17:50:00,
2013-02-01 11:55:00,22.7,9.4,30.48,South,180,6.0,8.0,56,0.00,,,0.00,VWS V14.00,2013-02-01 17:55:00,
2013-02-01 12:00:00,23.0,10.4,30.48,South,180,5.0,9.0,58,0.00,,,0.00,VWS V14.00,2013-02-01 18:00:00,
2013-02-01 12:05:00,23.4,10.4,30.47,South,180,6.0,10.0,57,0.00,,,0.00,VWS V14.00,2013-02-01 18:05:00,
2013-02-01 12:10:00,23.6,10.6,30.47,SSE,158,6.0,10.0,57,0.00,,,0.00,VWS V14.00,2013-02-01 18:10:00,
2013-02-01 12:15:00,23.9,10.5,30.46,South,180,4.0,9.0,56,0.00,,,0.00,VWS V14.00,2013-02-01 18:15:00,
2013-02-01 12:20:00,24.2,11.2,30.46,SSE,158,6.0,11.0,57,0.00,,,0.00,VWS V14.00,2013-02-01 18:20:00,
2013-02-01 12:25:00,24.5,11.5,30.46,SSE,158,4.0,8.0,57,0.00,,,0.00,VWS V14.00,2013-02-01 18:25:00,
2013-02-01 12:30:00,25.0,11.5,30.45,SSE,158,6.0,10.0,56,0.00,,,0.00,VWS V14.00,2013-02-01 18:30:00,
2013-02-01 12:35:00,24.8,10.9,30.45,South,180,5.0,11.0,55,0.00,,,0.00,VWS V14.00,2013-02-01 18:35:00,
2013-02-01 12:40:00,25.2,11.7,30.45,South,180,5.0,9.0,56,0.00,,,0.00,VWS V14.00,2013-02-01 18:40:00,
2013-02-01 12:45:00,25.6,10.9,30.44,South,180,6.0,11.0,53,0.00,,,0.00,VWS V14.00,2013-02-01 18:45:00,
2013-02-01 12:50:00,25.4,10.7,30.44,SSE,158,6.0,9.0,53,0.00,,,0.00,VWS V14.00,2013-02-01 18:50:00,
2013-02-01 12:55:00,25.3,10.6,30.43,South,180,6.0,9.0,53,0.00,,,0.00,VWS V14.00,2013-02-01 18:55:00,
2013-02-01 13:00:00,25.8,11.0,30.43,SSE,158,5.0,10.0,53,0.00,,,0.00,VWS V14.00,2013-02-01 19:00:00,
2013-02-01 13:05:00,25.9,9.8,30.42,South,180,5.0,9.0,50,0.00,,,0.00,VWS V14.00,2013-02-01 19:05:00,
2013-02-01 13:10:00,25.7,10.1,30.42,SSE,158,8.0,13.0,51,0.00,,,0.00,VWS V14.00,2013-02-01 19:10:00,
2013-02-01 13:15:00,25.8,10.2,30.42,SSE,158,7.0,12.0,51,0.00,,,0.00,VWS V14.00,2013-02-01 19:15:00,
2013-02-01 13:20:00,26.1,11.3,30.41,SSE,158,5.0,10.0,53,0.00,,,0.00,VWS V14.00,2013-02-01 19:20:00,
2013-02-01 13:25:00,25.6,10.0,30.42,South,180,6.0,10.0,51,0.00,,,0.00,VWS V14.00,2013-02-01 19:25:00,
2013-02-01 13:30:00,25.7,11.4,30.41,South,180,6.0,9.0,54,0.00,,,0.00,VWS V14.00,2013-02-01 19:30:00,
2013-02-01 13:35:00,26.1,12.2,30.41,South,180,6.0,8.0,55,0.00,,,0.00,VWS V14.00,2013-02-01 19:35:00,
2013-02-01 13:40:00,26.5,11.3,30.41,SSE,158,6.0,11.0,52,0.00,,,0.00,VWS V14.00,2013-02-01 19:40:00,
2013-02-01 13:45:00,26.4,10.7,30.41,SSE,158,6.0,9.0,51,0.00,,,0.00,VWS V14.00,2013-02-01 19:45:00,
2013-02-01 13:50:00,26.4,10.7,30.40,South,180,6.0,11.0,51,0.00,,,0.00,VWS V14.00,2013-02-01 19:50:00,
2013-02-01 13:55:00,26.3,11.1,30.41,South,180,7.0,11.0,52,0.00,,,0.00,VWS V14.00,2013-02-01 19:55:00,
2013-02-01 14:00:00,26.3,11.1,30.41,South,180,5.0,10.0,52,0.00,,,0.00,VWS V14.00,2013-02-01 20:00:00,
2013-02-01 14:05:00,26.4,11.6,30.41,South,180,7.0,10.0,53,0.00,,,0.00,VWS V14.00,2013-02-01 20:05:00,
2013-02-01 14:10:00,26.4,12.4,30.41,South,180,6.0,10.0,55,0.00,,,0.00,VWS V14.00,2013-02-01 20:10:00,
2013-02-01 14:15:00,26.3,11.5,30.41,South,180,7.0,13.0,53,0.00,,,0.00,VWS V14.00,2013-02-01 20:15:00,
2013-02-01 14:20:00,26.0,11.2,30.41,South,180,6.0,11.0,53,0.00,,,0.00,VWS V14.00,2013-02-01 20:20:00,
2013-02-01 14:25:00,25.8,11.5,30.40,South,180,7.0,11.0,54,0.00,,,0.00,VWS V14.00,2013-02-01 20:25:00,
2013-02-01 14:30:00,25.9,11.6,30.40,South,180,7.0,10.0,54,0.00,,,0.00,VWS V14.00,2013-02-01 20:30:00,
2013-02-01 14:35:00,26.0,12.1,30.40,SSE,158,7.0,10.0,55,0.00,,,0.00,VWS V14.00,2013-02-01 20:35:00,
2013-02-01 14:40:00,26.3,12.8,30.39,South,180,7.0,11.0,56,0.00,,,0.00,VWS V14.00,2013-02-01 20:40:00,
2013-02-01 14:45:00,26.5,12.9,30.39,South,180,5.0,10.0,56,0.00,,,0.00,VWS V14.00,2013-02-01 20:45:00,
2013-02-01 14:50:00,26.4,12.4,30.39,South,180,8.0,11.0,55,0.00,,,0.00,VWS V14.00,2013-02-01 20:50:00,
2013-02-01 14:55:00,26.3,12.8,30.39,South,180,6.0,11.0,56,0.00,,,0.00,VWS V14.00,2013-02-01 20:55:00,
2013-02-01 15:00:00,26.5,12.9,30.38,South,180,7.0,11.0,56,0.00,,,0.00,VWS V14.00,2013-02-01 21:00:00,
2013-02-01 15:05:00,26.1,11.7,30.38,South,180,7.0,11.0,54,0.00,,,0.00,VWS V14.00,2013-02-01 21:05:00,
2013-02-01 15:10:00,26.1,11.7,30.38,South,180,7.0,12.0,54,0.00,,,0.00,VWS V14.00,2013-02-01 21:10:00,
2013-02-01 15:15:00,26.0,12.1,30.38,SSE,158,6.0,9.0,55,0.00,,,0.00,VWS V14.00,2013-02-01 21:15:00,
2013-02-01 15:20:00,26.0,12.1,30.38,South,180,6.0,9.0,55,0.00,,,0.00,VWS V14.00,2013-02-01 21:20:00,
2013-02-01 15:25:00,26.0,11.6,30.37,South,180,6.0,10.0,54,0.00,,,0.00,VWS V14.00,2013-02-01 21:25:00,
2013-02-01 15:30:00,26.1,12.2,30.37,South,180,4.0,8.0,55,0.00,,,0.00,VWS V14.00,2013-02-01 21:30:00,
2013-02-01 15:35:00,26.2,12.7,30.37,South,180,6.0,9.0,56,0.00,,,0.00,VWS V14.00,2013-02-01 21:35:00,
2013-02-01 15:40:00,26.2,12.2,30.37,South,180,6.0,7.0,55,0.00,,,0.00,VWS V14.00,2013-02-01 21:40:00,
2013-02-01 15:45:00,26.4,12.4,30.36,South,180,6.0,9.0,55,0.00,,,0.00,VWS V14.00,2013-02-01 21:45:00,
2013-02-01 15:50:00,26.4,11.6,30.36,SSE,158,7.0,10.0,53,0.00,,,0.00,VWS V14.00,2013-02-01 21:50:00,
2013-02-01 15:55:00,26.5,12.1,30.36,South,180,6.0,9.0,54,0.00,,,0.00,VWS V14.00,2013-02-01 21:55:00,
2013-02-01 16:00:00,26.5,11.7,30.36,SSE,158,6.0,9.0,53,0.00,,,0.00,VWS V14.00,2013-02-01 22:00:00,
2013-02-01 16:05:00,26.5,12.5,30.35,SSE,158,6.0,10.0,55,0.00,,,0.00,VWS V14.00,2013-02-01 22:05:00,
2013-02-01 16:10:00,26.6,13.0,30.35,South,180,5.0,8.0,56,0.00,,,0.00,VWS V14.00,2013-02-01 22:10:00,
2013-02-01 16:15:00,26.6,12.2,30.35,SSE,158,6.0,8.0,54,0.00,,,0.00,VWS V14.00,2013-02-01 22:15:00,
2013-02-01 16:20:00,26.7,12.3,30.35,South,180,5.0,10.0,54,0.00,,,0.00,VWS V14.00,2013-02-01 22:20:00,
2013-02-01 16:25:00,26.8,12.0,30.35,South,180,7.0,10.0,53,0.00,,,0.00,VWS V14.00,2013-02-01 22:25:00,
2013-02-01 16:30:00,26.8,12.0,30.35,South,180,6.0,8.0,53,0.00,,,0.00,VWS V14.00,2013-02-01 22:30:00,
2013-02-01 16:35:00,26.9,12.5,30.35,South,180,5.0,7.0,54,0.00,,,0.00,VWS V14.00,2013-02-01 22:35:00,
2013-02-01 16:40:00,26.9,12.1,30.34,South,180,6.0,9.0,53,0.00,,,0.00,VWS V14.00,2013-02-01 22:40:00,
2013-02-01 16:45:00,26.9,12.1,30.34,South,180,5.0,8.0,53,0.00,,,0.00,VWS V14.00,2013-02-01 22:45:00,
2013-02-01 16:50:00,26.9,12.5,30.33,South,180,4.0,6.0,54,0.00,,,0.00,VWS V14.00,2013-02-01 22:50:00,
2013-02-01 16:55:00,26.9,12.1,30.33,South,180,4.0,7.0,53,0.00,,,0.00,VWS V14.00,2013-02-01 22:55:00,
2013-02-01 17:00:00,26.9,12.5,30.33,SSE,158,5.0,7.0,54,0.00,,,0.00,VWS V14.00,2013-02-01 23:00:00,
2013-02-01 17:05:00,26.9,12.5,30.33,SSE,158,5.0,8.0,54,0.00,,,0.00,VWS V14.00,2013-02-01 23:05:00,
2013-02-01 17:10:00,26.9,12.9,30.33,SSE,158,4.0,7.0,55,0.00,,,0.00,VWS V14.00,2013-02-01 23:10:00,
2013-02-01 17:15:00,26.9,12.9,30.32,SSE,158,4.0,8.0,55,0.00,,,0.00,VWS V14.00,2013-02-01 23:15:00,
2013-02-01 17:20:00,26.9,12.9,30.32,SSE,158,5.0,8.0,55,0.00,,,0.00,VWS V14.00,2013-02-01 23:20:00,
2013-02-01 17:27:00,26.9,12.9,30.32,SSE,158,5.0,8.0,55,0.00,,,0.00,VWS V14.00,2013-02-01 23:27:00,
2013-02-01 17:28:00,26.9,12.9,30.31,SSE,158,2.0,5.0,55,0.00,,,0.00,VWS V14.00,2013-02-01 23:28:00,
2013-02-01 17:30:00,27.0,13.0,30.31,SSE,152,4.0,5.0,55,0.00,,,0.00,VWS V14.00,2013-02-01 23:30:00,
2013-02-01 17:33:00,27.0,13.0,30.31,South,173,4.0,6.0,55,0.00,,,0.00,VWS V14.00,2013-02-01 23:33:00,
2013-02-01 17:35:00,27.0,13.0,30.31,SSE,166,4.0,6.0,55,0.00,,,0.00,VWS V14.00,2013-02-01 23:35:00,
2013-02-01 17:38:00,27.0,13.0,30.31,South,171,1.0,5.0,55,0.00,,,0.00,VWS V14.00,2013-02-01 23:38:00,
2013-02-01 17:40:00,27.0,13.0,30.31,SSE,166,3.0,5.0,55,0.00,,,0.00,VWS V14.00,2013-02-01 23:40:00,
2013-02-01 17:43:00,27.0,13.0,30.31,SSE,168,5.0,5.0,55,0.00,,,0.00,VWS V14.00,2013-02-01 23:43:00,
2013-02-01 17:45:00,27.0,13.4,30.31,SE,137,5.0,7.0,56,0.00,,,0.00,VWS V14.00,2013-02-01 23:45:00,
2013-02-01 17:48:00,27.1,13.5,30.30,SSE,155,4.0,6.0,56,0.00,,,0.00,VWS V14.00,2013-02-01 23:48:00,
2013-02-01 17:50:00,27.1,13.5,30.30,SSE,166,3.0,6.0,56,0.00,,,0.00,VWS V14.00,2013-02-01 23:50:00,
2013-02-01 17:53:00,27.1,13.1,30.30,SSE,155,6.0,6.0,55,0.00,,,0.00,VWS V14.00,2013-02-01 23:53:00,
2013-02-01 17:55:00,27.1,13.5,30.30,SSE,153,3.0,6.0,56,0.00,,,0.00,VWS V14.00,2013-02-01 23:55:00,
2013-02-01 17:58:00,27.1,13.9,30.30,SSE,148,2.0,5.0,57,0.00,,,0.00,VWS V14.00,2013-02-01 23:58:00,
2013-02-01 18:00:00,27.1,13.9,30.29,SSE,147,4.0,5.0,57,0.00,,,0.00,VWS V14.00,2013-02-02 00:00:00,
2013-02-01 18:03:00,27.1,14.3,30.30,SSE,153,3.0,4.0,58,0.00,,,0.00,VWS V14.00,2013-02-02 00:03:00,
2013-02-01 18:05:00,27.1,14.3,30.29,SSE,152,2.0,4.0,58,0.00,,,0.00,VWS V14.00,2013-02-02 00:05:00,
2013-02-01 18:08:00,27.1,13.9,30.30,SSE,151,2.0,4.0,57,0.00,,,0.00,VWS V14.00,2013-02-02 00:08:00,
2013-02-01 18:10:00,27.1,13.9,30.29,SE,142,3.0,4.0,57,0.00,,,0.00,VWS V14.00,2013-02-02 00:10:00,
2013-02-01 18:13:00,27.1,14.3,30.29,SSE,147,3.0,5.0,58,0.00,,,0.00,VWS V14.00,2013-02-02 00:13:00,
2013-02-01 18:15:00,27.1,14.3,30.29,SSE,165,4.0,6.0,58,0.00,,,0.00,VWS V14.00,2013-02-02 00:15:00,
2013-02-01 18:18:00,27.1,14.3,30.29,SSE,160,4.0,6.0,58,0.00,,,0.00,VWS V14.00,2013-02-02 00:18:00,
2013-02-01 18:20:00,27.1,13.9,30.29,SSE,160,3.0,6.0,57,0.00,,,0.00,VWS V14.00,2013-02-02 00:20:00,
2013-02-01 18:23:00,27.2,14.0,30.29,SSE,158,4.0,5.0,57,0.00,,,0.00,VWS V14.00,2013-02-02 00:23:00,
2013-02-01 18:25:00,27.2,14.0,30.29,SSE,161,3.0,5.0,57,0.00,,,0.00,VWS V14.00,2013-02-02 00:25:00,
2013-02-01 18:28:00,27.2,14.0,30.29,SSE,167,5.0,5.0,57,0.00,,,0.00,VWS V14.00,2013-02-02 00:28:00,
2013-02-01 18:30:00,27.3,14.1,30.29,SSE,156,6.0,6.0,57,0.00,,,0.00,VWS V14.00,2013-02-02 00:30:00,
2013-02-01 18:33:00,27.3,14.1,30.29,SSE,152,6.0,6.0,57,0.00,,,0.00,VWS V14.00,2013-02-02 00:33:00,
2013-02-01 18:35:00,27.3,14.5,30.29,SSE,160,3.0,6.0,58,0.00,,,0.00,VWS V14.00,2013-02-02 00:35:00,
2013-02-01 18:38:00,27.4,14.6,30.29,SSE,156,1.0,5.0,58,0.00,,,0.00,VWS V14.00,2013-02-02 00:38:00,
2013-02-01 18:40:00,27.4,14.6,30.29,SSE,156,3.0,5.0,58,0.00,,,0.00,VWS V14.00,2013-02-02 00:40:00,
2013-02-01 18:49:00,27.5,14.7,30.29,SSE,156,4.0,4.0,58,0.00,,,0.00,VWS V14.00,2013-02-02 00:49:00,
2013-02-01 18:50:00,27.5,14.7,30.29,SSE,156,1.0,4.0,58,0.00,,,0.00,VWS V14.00,2013-02-02 00:50:00,
2013-02-01 18:54:00,27.6,15.6,30.29,SSE,156,0.0,4.0,60,0.00,,,0.00,VWS V14.00,2013-02-02 00:54:00,
2013-02-01 18:55:00,27.6,15.6,30.29,SSE,154,3.0,4.0,60,0.00,,,0.00,VWS V14.00,2013-02-02 00:55:00,
2013-02-01 19:03:00,27.7,15.6,30.28,SSE,153,2.0,2.0,60,0.00,,,0.00,VWS V14.00,2013-02-02 01:03:00,
2013-02-01 19:05:00,27.7,15.3,30.28,SE,144,6.0,6.0,59,0.00,,,0.00,VWS V14.00,2013-02-02 01:05:00,
2013-02-01 19:08:00,27.8,15.4,30.28,SSE,157,4.0,6.0,59,0.00,,,0.00,VWS V14.00,2013-02-02 01:08:00,
2013-02-01 19:10:00,27.8,15.4,30.28,SSE,160,4.0,6.0,59,0.00,,,0.00,VWS V14.00,2013-02-02 01:10:00,
2013-02-01 19:13:00,27.8,15.4,30.28,SSE,164,3.0,5.0,59,0.00,,,0.00,VWS V14.00,2013-02-02 01:13:00,
2013-02-01 19:15:00,27.9,15.4,30.28,SSE,159,3.0,6.0,59,0.00,,,0.00,VWS V14.00,2013-02-02 01:15:00,
2013-02-01 19:18:00,27.9,15.4,30.28,SSE,164,4.0,6.0,59,0.00,,,0.00,VWS V14.00,2013-02-02 01:18:00,
2013-02-01 19:20:00,27.9,15.4,30.28,SSE,165,6.0,6.0,59,0.00,,,0.00,VWS V14.00,2013-02-02 01:20:00,
2013-02-01 19:23:00,28.0,15.1,30.28,SSE,157,2.0,6.0,58,0.00,,,0.00,VWS V14.00,2013-02-02 01:23:00,
2013-02-01 19:25:00,28.0,15.5,30.28,South,173,3.0,6.0,59,0.00,,,0.00,VWS V14.00,2013-02-02 01:25:00,
2013-02-01 19:28:00,28.0,15.1,30.28,South,177,4.0,5.0,58,0.00,,,0.00,VWS V14.00,2013-02-02 01:28:00,
2013-02-01 19:30:00,28.0,15.1,30.28,South,181,6.0,6.0,58,0.00,,,0.00,VWS V14.00,2013-02-02 01:30:00,
2013-02-01 19:33:00,28.0,15.1,30.28,South,170,3.0,6.0,58,0.00,,,0.00,VWS V14.00,2013-02-02 01:33:00,
2013-02-01 19:35:00,28.0,15.1,30.28,SSE,162,5.0,6.0,58,0.00,,,0.00,VWS V14.00,2013-02-02 01:35:00,
2013-02-01 19:38:00,28.0,15.1,30.28,SSE,166,4.0,6.0,58,0.00,,,0.00,VWS V14.00,2013-02-02 01:38:00,
2013-02-01 19:40:00,28.0,14.8,30.28,South,176,5.0,8.0,57,0.00,,,0.00,VWS V14.00,2013-02-02 01:40:00,
2013-02-01 19:43:00,28.0,14.8,30.28,SSE,160,8.0,8.0,57,0.00,,,0.00,VWS V14.00,2013-02-02 01:43:00,
2013-02-01 19:45:00,28.0,14.8,30.27,SSE,167,7.0,8.0,57,0.00,,,0.00,VWS V14.00,2013-02-02 01:45:00,
2013-02-01 19:48:00,28.0,14.8,30.27,SSE,164,6.0,8.0,57,0.00,,,0.00,VWS V14.00,2013-02-02 01:48:00,
2013-02-01 19:50:00,28.0,14.8,30.27,South,172,6.0,8.0,57,0.00,,,0.00,VWS V14.00,2013-02-02 01:50:00,
2013-02-01 19:53:00,28.0,14.8,30.27,SSE,162,7.0,9.0,57,0.00,,,0.00,VWS V14.00,2013-02-02 01:53:00,
2013-02-01 19:55:00,28.0,14.8,30.27,South,174,5.0,9.0,57,0.00,,,0.00,VWS V14.00,2013-02-02 01:55:00,
2013-02-01 19:58:00,27.9,14.6,30.28,SSW,192,5.0,8.0,57,0.00,,,0.00,VWS V14.00,2013-02-02 01:58:00,
2013-02-01 20:00:00,28.0,14.8,30.28,South,189,5.0,8.0,57,0.00,,,0.00,VWS V14.00,2013-02-02 02:00:00,
2013-02-01 20:03:00,28.0,14.8,30.28,SSW,197,6.0,9.0,57,0.00,,,0.00,VWS V14.00,2013-02-02 02:03:00,
2013-02-01 20:05:00,27.9,14.6,30.28,SSW,193,3.0,9.0,57,0.00,,,0.00,VWS V14.00,2013-02-02 02:05:00,
2013-02-01 20:08:00,27.9,14.6,30.28,SSW,210,2.0,7.0,57,0.00,,,0.00,VWS V14.00,2013-02-02 02:08:00,
2013-02-01 20:10:00,27.9,14.6,30.28,South,174,7.0,7.0,57,0.00,,,0.00,VWS V14.00,2013-02-02 02:10:00,
2013-02-01 20:13:00,28.0,14.3,30.28,South,188,6.0,9.0,56,0.00,,,0.00,VWS V14.00,2013-02-02 02:13:00,
2013-02-01 20:15:00,28.0,14.4,30.28,South,187,5.0,9.0,56,0.00,,,0.00,VWS V14.00,2013-02-02 02:15:00,
2013-02-01 20:18:00,28.0,13.9,30.28,SSW,199,5.0,10.0,55,0.00,,,0.00,VWS V14.00,2013-02-02 02:18:00,
2013-02-01 20:20:00,28.0,13.9,30.28,SSW,194,6.0,10.0,55,0.00,,,0.00,VWS V14.00,2013-02-02 02:20:00,
2013-02-01 20:23:00,28.0,13.9,30.28,SW,215,5.0,8.0,55,0.00,,,0.00,VWS V14.00,2013-02-02 02:23:00,
2013-02-01 20:25:00,28.0,13.9,30.28,SSW,197,5.0,8.0,55,0.00,,,0.00,VWS V14.00,2013-02-02 02:25:00,
2013-02-01 20:28:00,28.0,14.3,30.28,SW,214,4.0,9.0,56,0.00,,,0.00,VWS V14.00,2013-02-02 02:28:00,
2013-02-01 20:30:00,28.0,14.4,30.28,South,190,5.0,9.0,56,0.00,,,0.00,VWS V14.00,2013-02-02 02:30:00,
2013-02-01 20:33:00,27.9,14.2,30.28,South,175,6.0,8.0,56,0.00,,,0.00,VWS V14.00,2013-02-02 02:33:00,
2013-02-01 20:35:00,27.9,14.2,30.28,South,183,7.0,8.0,56,0.00,,,0.00,VWS V14.00,2013-02-02 02:35:00,
2013-02-01 20:38:00,27.9,14.6,30.28,SSW,197,6.0,10.0,57,0.00,,,0.00,VWS V14.00,2013-02-02 02:38:00,
2013-02-01 20:40:00,27.9,14.6,30.28,SW,217,4.0,10.0,57,0.00,,,0.00,VWS V14.00,2013-02-02 02:40:00,
2013-02-01 20:43:00,27.9,14.2,30.28,SSW,197,6.0,8.0,56,0.00,,,0.00,VWS V14.00,2013-02-02 02:43:00,
2013-02-01 20:45:00,27.8,14.6,30.28,SSW,206,4.0,8.0,57,0.00,,,0.00,VWS V14.00,2013-02-02 02:45:00,
2013-02-01 20:48:00,27.8,14.2,30.27,SSW,193,3.0,8.0,56,0.00,,,0.00,VWS V14.00,2013-02-02 02:48:00,
2013-02-01 20:50:00,27.8,14.6,30.27,South,191,5.0,8.0,57,0.00,,,0.00,VWS V14.00,2013-02-02 02:50:00,
2013-02-01 20:53:00,27.7,14.5,30.27,SSW,197,4.0,7.0,57,0.00,,,0.00,VWS V14.00,2013-02-02 02:53:00,
2013-02-01 20:55:00,27.6,14.8,30.27,South,177,5.0,7.0,58,0.00,,,0.00,VWS V14.00,2013-02-02 02:55:00,
2013-02-01 20:58:00,27.6,14.8,30.27,South,182,3.0,6.0,58,0.00,,,0.00,VWS V14.00,2013-02-02 02:58:00,
2013-02-01 21:00:00,27.5,14.7,30.27,SSW,212,6.0,6.0,58,0.00,,,0.00,VWS V14.00,2013-02-02 03:00:00,
2013-02-01 21:03:00,27.4,14.6,30.27,SSW,210,4.0,6.0,58,0.00,,,0.00,VWS V14.00,2013-02-02 03:03:00,
2013-02-01 21:05:00,27.4,14.6,30.27,SSW,205,2.0,6.0,58,0.00,,,0.00,VWS V14.00,2013-02-02 03:05:00,
2013-02-01 21:08:00,27.3,14.5,30.27,South,189,6.0,7.0,58,0.00,,,0.00,VWS V14.00,2013-02-02 03:08:00,
2013-02-01 21:10:00,27.2,14.4,30.27,South,185,4.0,7.0,58,0.00,,,0.00,VWS V14.00,2013-02-02 03:10:00,
2013-02-01 21:13:00,27.2,14.4,30.27,SSW,206,3.0,6.0,58,0.00,,,0.00,VWS V14.00,2013-02-02 03:13:00,
2013-02-01 21:15:00,27.1,14.3,30.27,SSW,202,4.0,6.0,58,0.00,,,0.00,VWS V14.00,2013-02-02 03:15:00,
2013-02-01 21:18:00,27.1,14.7,30.27,SSW,193,4.0,5.0,59,0.00,,,0.00,VWS V14.00,2013-02-02 03:18:00,
2013-02-01 21:20:00,27.0,14.6,30.27,SSW,201,3.0,6.0,59,0.00,,,0.00,VWS V14.00,2013-02-02 03:20:00,
2013-02-01 21:29:00,26.8,14.8,30.27,SSW,201,5.0,5.0,60,0.00,,,0.00,VWS V14.00,2013-02-02 03:29:00,
2013-02-01 21:30:00,26.7,14.7,30.27,SSW,193,5.0,6.0,60,0.00,,,0.00,VWS V14.00,2013-02-02 03:30:00,
2013-02-01 21:34:00,26.7,14.7,30.27,South,183,5.0,6.0,60,0.00,,,0.00,VWS V14.00,2013-02-02 03:34:00,
2013-02-01 21:35:00,26.7,14.7,30.27,SSW,203,3.0,7.0,60,0.00,,,0.00,VWS V14.00,2013-02-02 03:35:00,
2013-02-01 21:39:00,26.6,14.6,30.27,South,180,3.0,7.0,60,0.00,,,0.00,VWS V14.00,2013-02-02 03:39:00,
2013-02-01 21:40:00,26.6,14.6,30.27,SSW,199,2.0,7.0,60,0.00,,,0.00,VWS V14.00,2013-02-02 03:40:00,
2013-02-01 21:48:00,26.3,14.3,30.27,SSW,197,3.0,3.0,60,0.00,,,0.00,VWS V14.00,2013-02-02 03:48:00,
2013-02-01 21:50:00,26.3,14.3,30.27,South,189,4.0,5.0,60,0.00,,,0.00,VWS V14.00,2013-02-02 03:50:00,
2013-02-01 21:53:00,26.2,14.2,30.27,SSW,197,3.0,6.0,60,0.00,,,0.00,VWS V14.00,2013-02-02 03:53:00,
2013-02-01 21:55:00,26.2,14.6,30.27,SSW,195,3.0,6.0,61,0.00,,,0.00,VWS V14.00,2013-02-02 03:55:00,
2013-02-01 22:02:00,26.0,14.4,30.27,SSW,204,2.0,2.0,61,0.00,,,0.00,VWS V14.00,2013-02-02 04:02:00,
2013-02-01 22:10:00,25.7,14.9,30.26,South,180,5.0,7.0,63,0.00,,,0.00,VWS V14.00,2013-02-02 04:10:00,
2013-02-01 22:15:00,25.6,15.1,30.26,South,180,4.0,6.0,64,0.00,,,0.00,VWS V14.00,2013-02-02 04:15:00,
2013-02-01 22:20:00,25.7,14.9,30.26,SSW,202,3.0,5.0,63,0.00,,,0.00,VWS V14.00,2013-02-02 04:20:00,
2013-02-01 22:25:00,25.7,15.2,30.26,South,180,2.0,4.0,64,0.00,,,0.00,VWS V14.00,2013-02-02 04:25:00,
2013-02-01 22:30:00,25.7,14.9,30.26,SSW,202,2.0,4.0,63,0.00,,,0.00,VWS V14.00,2013-02-02 04:30:00,
2013-02-01 22:35:00,25.5,15.4,30.26,SSW,202,2.0,4.0,65,0.00,,,0.00,VWS V14.00,2013-02-02 04:35:00,
2013-02-01 22:40:00,25.5,15.4,30.26,SSW,202,2.0,4.0,65,0.00,,,0.00,VWS V14.00,2013-02-02 04:40:00,
2013-02-01 22:45:00,25.4,14.9,30.26,SSW,202,2.0,4.0,64,0.00,,,0.00,VWS V14.00,2013-02-02 04:45:00,
2013-02-01 22:50:00,25.3,14.8,30.26,SSW,202,2.0,4.0,64,0.00,,,0.00,VWS V14.00,2013-02-02 04:50:00,
2013-02-01 22:55:00,25.4,15.3,30.26,South,180,3.0,5.0,65,0.00,,,0.00,VWS V14.00,2013-02-02 04:55:00,
2013-02-01 23:00:00,25.3,15.2,30.26,South,180,3.0,5.0,65,0.00,,,0.00,VWS V14.00,2013-02-02 05:00:00,
2013-02-01 23:05:00,25.3,15.2,30.25,South,180,3.0,5.0,65,0.00,,,0.00,VWS V14.00,2013-02-02 05:05:00,
2013-02-01 23:10:00,25.3,15.6,30.25,South,180,3.0,5.0,66,0.00,,,0.00,VWS V14.00,2013-02-02 05:10:00,
2013-02-01 23:15:00,25.4,15.6,30.25,South,180,3.0,4.0,66,0.00,,,0.00,VWS V14.00,2013-02-02 05:15:00,
2013-02-01 23:20:00,25.5,15.4,30.25,South,180,2.0,4.0,65,0.00,,,0.00,VWS V14.00,2013-02-02 05:20:00,
2013-02-01 23:25:00,25.6,15.8,30.25,South,180,3.0,5.0,66,0.00,,,0.00,VWS V14.00,2013-02-02 05:25:00,
2013-02-01 23:30:00,25.7,15.9,30.25,South,180,3.0,4.0,66,0.00,,,0.00,VWS V14.00,2013-02-02 05:30:00,
2013-02-01 23:35:00,25.7,16.3,30.24,SSE,158,3.0,5.0,67,0.00,,,0.00,VWS V14.00,2013-02-02 05:35:00,
2013-02-01 23:40:00,25.8,16.4,30.24,South,180,4.0,6.0,67,0.00,,,0.00,VWS V14.00,2013-02-02 05:40:00,
2013-02-01 23:45:00,25.8,16.7,30.24,SSE,158,3.0,6.0,68,0.00,,,0.00,VWS V14.00,2013-02-02 05:45:00,
2013-02-01 23:50:00,25.9,16.8,30.23,South,180,3.0,6.0,68,0.00,,,0.00,VWS V14.00,2013-02-02 05:50:00,
2013-02-01 23:55:00,26.0,16.6,30.23,South,180,4.0,6.0,67,0.00,,,0.00,VWS V14.00,2013-02-02 05:55:00,